N0DBM Weather Reports


time (UTC)temp
C
wind
direction
speed
KPH
gust
KPH
rain 1hr
cm
rain 24hr
cm
rain mn
cm
humidity
%
barometer
mb
20260504205007 26 190 6.4 17.7 0.00 0.05 0.05 43 1001.3
20260504204520 26 190 9.7 27.4 0.00 0.05 0.05 41 1001.4
20260504204007 25 190 12.9 27.4 0.00 0.05 0.05 41 1001.4
20260504203506 26 190 11.3 22.5 0.00 0.05 0.05 42 1001.6
20260504203023 26 190 11.3 19.3 0.00 0.05 0.05 42 1001.7
20260504202508 26 190 8.0 19.3 0.00 0.05 0.05 44 1001.7
20260504202003 26 190 4.8 24.1 0.00 0.05 0.05 44 1001.8
20260504201505 26 190 12.9 24.1 0.00 0.05 0.05 42 1001.7
20260504201004 26 190 11.3 22.5 0.00 0.05 0.05 42 1001.7
20260504200504 26 190 9.7 22.5 0.00 0.05 0.05 42 1001.8
20260504200010 26 190 9.7 22.5 0.00 0.05 0.05 43 1001.7
20260504195503 26 190 4.8 16.1 0.00 0.05 0.05 43 1001.6
20260504195004 26 190 6.4 16.1 0.00 0.05 0.05 44 1001.7
20260504194516 26 190 8.0 24.1 0.00 0.05 0.05 42 1001.9
20260504194009 26 190 9.7 24.1 0.00 0.05 0.05 44 1002.0
20260504193509 26 190 8.0 22.5 0.00 0.05 0.05 45 1002.0
20260504193022 26 190 11.3 22.5 0.00 0.05 0.05 44 1002.0
20260504192509 25 190 8.0 20.9 0.00 0.05 0.05 44 1002.0
20260504192009 25 190 9.7 20.9 0.00 0.05 0.05 42 1002.0
20260504191526 25 190 8.0 16.1 0.00 0.05 0.05 43 1002.0
20260504191008 25 190 9.7 19.3 0.00 0.05 0.05 43 1002.1
20260504190503 25 190 6.4 19.3 0.00 0.05 0.05 42 1002.1
20260504190009 25 190 6.4 17.7 0.00 0.05 0.05 44 1002.1
20260504185504 25 190 8.0 20.9 0.00 0.05 0.05 44 1002.1
20260504185003 25 190 9.7 20.9 0.00 0.05 0.05 44 1002.2
20260504184514 25 190 8.0 20.9 0.00 0.05 0.05 44 1002.2
20260504184005 25 190 9.7 20.9 0.00 0.05 0.05 43 1002.3
20260504183504 25 190 8.0 19.3 0.00 0.05 0.05 45 1002.2
20260504183020 25 190 9.7 20.9 0.00 0.05 0.05 44 1002.4
20260504182507 25 190 11.3 20.9 0.00 0.05 0.05 45 1002.4
20260504182008 24 190 8.0 24.1 0.00 0.05 0.05 45 1002.4
20260504181522 24 190 9.7 24.1 0.00 0.05 0.05 46 1002.4
20260504181008 24 190 8.0 19.3 0.00 0.05 0.05 45 1002.4
20260504180509 24 190 8.0 22.5 0.00 0.05 0.05 44 1002.3
20260504180026 24 190 12.9 22.5 0.00 0.05 0.05 43 1002.4
20260504175507 24 190 3.2 25.7 0.00 0.05 0.05 47 1002.3
20260504175004 24 190 11.3 25.7 0.00 0.05 0.05 45 1002.4
20260504174511 24 190 9.7 17.7 0.00 0.05 0.05 47 1002.4
20260504174004 24 190 6.4 16.1 0.00 0.05 0.05 49 1002.5
20260504173505 23 190 8.0 17.7 0.00 0.05 0.05 48 1002.5
20260504173014 23 190 6.4 22.5 0.00 0.05 0.05 48 1002.6
20260504172504 23 190 11.3 22.5 0.00 0.05 0.05 47 1002.6
20260504172008 23 190 11.3 22.5 0.00 0.05 0.05 47 1002.7
20260504171521 23 190 6.4 22.5 0.00 0.05 0.05 48 1002.8
20260504171008 23 190 6.4 20.9 0.00 0.05 0.05 48 1002.9
20260504170508 23 190 6.4 24.1 0.00 0.05 0.05 50 1003.0
20260504151007 21 190 9.7 29.0 0.00 0.05 0.05 53 1003.4
20260504150507 21 190 12.9 25.7 0.00 0.05 0.05 51 1003.4
20260504141006 20 190 9.7 20.9 0.00 0.05 0.05 55 1003.7
20260504140503 20 190 11.3 19.3 0.00 0.05 0.05 54 1003.7
20260504130505 18 190 6.4 19.3 0.00 0.05 0.05 62 1004.0
20260504110507 15 190 0.0 6.4 0.05 0.05 0.05 74 1004.2
20260504100507 16 190 3.2 14.5 0.00 0.00 0.00 70 1005.5
20260504082004 14 190 1.6 3.2 0.00 0.00 0.00 71 1005.7
20260504081515 14 190 0.0 0.0 0.00 0.00 0.00 71 1005.5
20260504081006 14 190 0.0 0.0 0.00 0.00 0.00 70 1005.5
20260504080506 14 190 0.0 0.0 0.00 0.00 0.00 70 1005.7
20260504050504 14 190 0.0 0.0 0.00 0.00 0.00 70 1007.7
20260504050019 14 190 0.0 0.0 0.00 0.00 0.00 67 1008.0
20260504045504 15 190 0.0 0.0 0.00 0.00 0.00 65 1007.9
20260504045003 15 190 0.0 0.0 0.00 0.00 0.00 65 1007.8
20260504044517 15 190 0.0 0.0 0.00 0.00 0.00 65 1007.8
20260504044003 15 190 0.0 0.0 0.00 0.00 0.00 65 1007.9
20260504043506 15 190 0.0 0.0 0.00 0.00 0.00 66 1007.8
20260504043024 15 190 0.0 0.0 0.00 0.00 0.00 66 1007.9
20260504042508 15 190 0.0 0.0 0.00 0.00 0.00 66 1008.0
20260504042010 15 190 0.0 0.0 0.00 0.00 0.00 65 1008.0
20260504041532 15 190 0.0 0.0 0.00 0.00 0.00 63 1008.0
20260504041006 15 190 0.0 0.0 0.00 0.00 0.00 65 1008.1
20260504040505 15 190 0.0 0.0 0.00 0.00 0.00 65 1008.1
20260504040023 15 190 0.0 0.0 0.00 0.00 0.00 64 1008.1
20260504035508 15 190 0.0 0.0 0.00 0.00 0.00 66 1008.2
20260504035005 15 190 0.0 0.0 0.00 0.00 0.00 66 1008.3
20260504034518 15 190 0.0 0.0 0.00 0.00 0.00 66 1008.3
20260504034004 16 190 0.0 0.0 0.00 0.00 0.00 64 1008.2
20260504033504 16 190 0.0 0.0 0.00 0.00 0.00 64 1008.2
20260504033016 16 190 0.0 0.0 0.00 0.00 0.00 62 1008.2
20260504032507 16 190 0.0 0.0 0.00 0.00 0.00 61 1008.2
20260504032007 16 190 0.0 0.0 0.00 0.00 0.00 60 1008.3
20260504031522 16 190 0.0 0.0 0.00 0.00 0.00 60 1008.4
20260504031008 16 190 0.0 0.0 0.00 0.00 0.00 62 1008.4
20260504030507 16 190 0.0 0.0 0.00 0.00 0.00 61 1008.4
20260504030024 16 190 0.0 0.0 0.00 0.00 0.00 61 1008.4
20260504025507 17 190 0.0 0.0 0.00 0.00 0.00 57 1008.4
20260504025008 17 190 0.0 0.0 0.00 0.00 0.00 55 1008.4
20260504024526 17 190 0.0 0.0 0.00 0.00 0.00 55 1008.3
20260504024004 17 190 0.0 0.0 0.00 0.00 0.00 54 1008.3
20260504023504 18 190 0.0 0.0 0.00 0.00 0.00 53 1008.4
20260504023012 18 190 0.0 0.0 0.00 0.00 0.00 53 1008.3
20260504022506 18 190 0.0 0.0 0.00 0.00 0.00 53 1008.3
20260504022004 18 190 0.0 0.0 0.00 0.00 0.00 54 1008.3
20260504021519 18 190 0.0 0.0 0.00 0.00 0.00 54 1008.2
20260504021008 18 190 0.0 0.0 0.00 0.00 0.00 54 1008.2
20260504020504 18 190 0.0 0.0 0.00 0.00 0.00 53 1008.2
20260504020024 18 190 0.0 0.0 0.00 0.00 0.00 54 1008.2
20260504015508 18 190 0.0 0.0 0.00 0.00 0.00 53 1008.2
20260504015010 18 190 0.0 0.0 0.00 0.00 0.00 52 1008.2
20260504014528 18 190 0.0 0.0 0.00 0.00 0.00 54 1008.2
20260504014006 18 190 0.0 0.0 0.00 0.00 0.00 52 1008.2
20260504013508 18 190 0.0 0.0 0.00 0.00 0.00 53 1008.2
20260504013026 18 190 0.0 0.0 0.00 0.00 0.00 54 1008.1
20260504012504 19 190 0.0 0.0 0.00 0.00 0.00 52 1008.1
20260504012004 19 190 0.0 0.0 0.00 0.00 0.00 50 1008.2
20260504011518 20 190 0.0 0.0 0.00 0.00 0.00 50 1008.2
20260504011008 20 190 0.0 0.0 0.00 0.00 0.00 50 1008.1
20260504010506 20 190 0.0 0.0 0.00 0.00 0.00 48 1008.1
20260504010020 20 190 0.0 0.0 0.00 0.00 0.00 48 1008.1
20260504005507 21 190 0.0 0.0 0.00 0.00 0.00 47 1008.1
20260504005005 21 190 0.0 0.0 0.00 0.00 0.00 46 1008.1
20260504004525 21 190 0.0 0.0 0.00 0.00 0.00 45 1008.2
20260504004006 21 190 0.0 1.6 0.00 0.00 0.00 45 1008.3
20260504003511 21 190 0.0 3.2 0.00 0.00 0.00 45 1008.3
20260504003026 21 190 0.0 3.2 0.00 0.00 0.00 43 1008.3
20260504002506 22 190 0.0 1.6 0.00 0.00 0.00 43 1008.3
20260504002012 22 190 0.0 6.4 0.00 0.00 0.00 42 1008.4
20260504001531 22 190 0.0 11.3 0.00 0.00 0.00 42 1008.5
20260504001006 22 190 1.6 11.3 0.00 0.00 0.00 41 1008.4
20260504000505 22 190 3.2 8.0 0.00 0.00 0.00 41 1008.5
20260504000019 22 190 4.8 16.1 0.00 0.00 0.00 40 1008.6
20260503235507 23 190 6.4 16.1 0.00 0.00 0.00 39 1008.7
20260503235006 23 190 6.4 12.9 0.00 0.00 0.00 38 1008.7
20260503234526 23 190 1.6 14.5 0.00 0.00 0.00 37 1008.7
20260503234006 23 190 3.2 14.5 0.00 0.00 0.00 37 1008.6
20260503233508 23 190 4.8 9.7 0.00 0.00 0.00 37 1008.7
20260503233035 23 190 3.2 11.3 0.00 0.00 0.00 37 1008.7
20260503232507 23 190 3.2 12.9 0.00 0.00 0.00 36 1008.7
20260503232006 23 190 3.2 12.9 0.00 0.00 0.00 37 1008.7
20260503231525 23 190 4.8 14.5 0.00 0.00 0.00 36 1008.7
20260503231007 23 190 4.8 14.5 0.00 0.00 0.00 37 1008.8
20260503230508 23 190 1.6 9.7 0.00 0.00 0.00 38 1008.7
20260503230026 23 190 3.2 19.3 0.00 0.00 0.00 37 1008.6
20260503225503 23 190 3.2 19.3 0.00 0.00 0.00 38 1008.6
20260503225006 23 190 4.8 12.9 0.00 0.00 0.00 38 1008.7
20260503224520 23 190 4.8 14.5 0.00 0.00 0.00 38 1008.8
20260503224006 23 190 8.0 14.5 0.00 0.00 0.00 38 1008.7
20260503223503 23 190 4.8 11.3 0.00 0.00 0.00 39 1008.8
20260503223003 23 190 4.8 14.5 0.00 0.00 0.00 39 1008.8
20260503222503 23 190 6.4 14.5 0.00 0.00 0.00 38 1009.0
20260503222003 23 190 4.8 12.9 0.00 0.00 0.00 39 1009.0
20260503221512 23 190 3.2 12.9 0.00 0.00 0.00 39 1008.8
20260503221003 23 190 4.8 12.9 0.00 0.00 0.00 39 1008.8
20260503220502 23 190 3.2 14.5 0.00 0.00 0.00 39 1008.8
20260503220013 23 190 6.4 14.5 0.00 0.00 0.00 38 1008.9
20260503215504 23 190 3.2 16.1 0.00 0.00 0.00 38 1009.0
20260503215008 23 190 6.4 16.1 0.00 0.00 0.00 39 1009.1
20260503214518 23 190 3.2 14.5 0.00 0.00 0.00 39 1009.1
20260503214009 23 190 4.8 14.5 0.00 0.00 0.00 40 1009.1
20260503213506 23 190 4.8 16.1 0.00 0.00 0.00 39 1008.9
20260503213023 23 190 6.4 19.3 0.00 0.00 0.00 39 1009.0
20260503212503 23 190 3.2 19.3 0.00 0.00 0.00 41 1009.1
20260503212003 23 190 6.4 19.3 0.00 0.00 0.00 39 1009.3
20260503211503 23 190 6.4 17.7 0.00 0.00 0.00 40 1009.2
20260503211002 23 190 6.4 17.7 0.00 0.00 0.00 40 1009.4
20260503210502 23 190 6.4 19.3 0.00 0.00 0.00 42 1009.4
20260503210007 23 190 9.7 19.3 0.00 0.00 0.00 40 1009.3
20260503205504 23 190 8.0 16.1 0.00 0.00 0.00 41 1009.3